| time (UTC) | temp C | wind direction | speed KPH | gust KPH | rain 1hr cm | rain 24hr cm | rain mn cm | humidity % | barometer mb |
| 20260508064717 | 11 | 0.0 | 0.0 | 0.00 | 2.29 | 0.00 | 83 | 1014.8 | |
| 20260508063717 | 11 | 0.0 | 0.0 | 0.00 | 2.29 | 0.00 | 83 | 1014.7 | |
| 20260508062716 | 11 | 0.0 | 0.0 | 0.00 | 2.29 | 0.00 | 83 | 1014.8 | |
| 20260508061716 | 11 | 0.0 | 0.0 | 0.00 | 2.29 | 0.00 | 83 | 1014.8 | |
| 20260508060717 | 11 | 0.0 | 0.0 | 0.00 | 2.29 | 0.00 | 83 | 1014.8 | |
| 20260508055717 | 12 | 0.0 | 0.0 | 0.00 | 2.29 | 0.00 | 83 | 1014.7 | |
| 20260508054717 | 12 | 0.0 | 0.0 | 0.00 | 2.29 | 0.00 | 83 | 1014.7 | |
| 20260508053717 | 12 | 0.0 | 0.0 | 0.00 | 2.29 | 0.00 | 83 | 1014.7 | |
| 20260508052716 | 12 | 0.0 | 0.0 | 0.00 | 2.29 | 0.00 | 84 | 1014.7 | |
| 20260508051736 | 12 | 0.0 | 0.0 | 0.00 | 2.29 | 0.00 | 84 | 1014.6 | |
| 20260508050736 | 12 | 0.0 | 0.0 | 0.00 | 2.29 | 0.00 | 84 | 1014.5 | |
| 20260508045736 | 12 | 0.0 | 0.0 | 0.00 | 2.31 | 0.00 | 84 | 1014.5 | |
| 20260508044716 | 12 | 0.0 | 0.0 | 0.00 | 2.59 | 0.00 | 84 | 1014.4 | |
| 20260508043756 | 12 | 0.0 | 0.0 | 0.00 | 2.74 | 0.00 | 84 | 1014.4 | |
| 20260508042717 | 12 | 0.0 | 0.0 | 0.00 | 2.90 | 0.00 | 84 | 1014.4 | |
| 20260508041716 | 12 | 0.0 | 0.0 | 0.00 | 2.97 | 0.00 | 84 | 1014.5 | |
| 20260508040716 | 12 | 0.0 | 0.0 | 0.00 | 2.97 | 0.00 | 84 | 1014.5 | |
| 20260508035716 | 12 | 0.0 | 0.0 | 0.00 | 2.97 | 2.97 | 83 | 1014.3 | |
| 20260508034735 | 12 | 0.0 | 0.0 | 0.00 | 2.97 | 2.97 | 84 | 1014.4 | |
| 20260508033715 | 12 | 0.0 | 0.0 | 0.00 | 2.97 | 2.97 | 84 | 1014.1 | |
| 20260508032715 | 12 | 0.0 | 0.0 | 0.00 | 3.00 | 2.97 | 84 | 1013.9 | |
| 20260508031716 | 12 | 0.0 | 0.0 | 0.00 | 3.00 | 2.97 | 84 | 1013.8 | |
| 20260508030715 | 12 | 0.0 | 0.0 | 0.00 | 3.00 | 2.97 | 84 | 1013.7 | |
| 20260508025715 | 12 | 0.0 | 0.0 | 0.00 | 3.00 | 2.97 | 84 | 1013.7 | |
| 20260508024755 | 12 | 0.0 | 0.0 | 0.00 | 3.00 | 2.97 | 84 | 1013.5 | |
| 20260508023717 | 12 | 0.0 | 0.0 | 0.00 | 3.00 | 2.97 | 84 | 1013.5 | |
| 20260508022717 | 12 | 0.0 | 0.0 | 0.00 | 3.00 | 2.97 | 83 | 1013.3 | |
| 20260508021737 | 12 | 0.0 | 0.0 | 0.00 | 3.00 | 2.97 | 84 | 1013.4 | |
| 20260508020717 | 12 | 0.0 | 0.0 | 0.00 | 3.00 | 2.97 | 84 | 1013.1 | |
| 20260508015717 | 12 | 0.0 | 0.0 | 0.00 | 3.00 | 2.97 | 84 | 1012.9 | |
| 20260508014717 | 12 | 0.0 | 0.0 | 0.00 | 3.00 | 2.97 | 84 | 1013.2 | |
| 20260508013717 | 12 | 0.0 | 0.0 | 0.00 | 3.00 | 2.97 | 83 | 1013.1 | |
| 20260508012717 | 12 | 0.0 | 0.0 | 0.03 | 3.00 | 2.97 | 83 | 1012.7 | |
| 20260508011717 | 12 | 0.0 | 0.0 | 0.08 | 3.00 | 2.97 | 83 | 1012.5 | |
| 20260508010717 | 12 | 0.0 | 0.0 | 0.23 | 3.00 | 2.97 | 83 | 1012.1 | |
| 20260508005717 | 13 | 0.0 | 0.0 | 0.28 | 3.00 | 2.97 | 83 | 1011.9 | |
| 20260508004718 | 13 | 0.0 | 0.0 | 0.33 | 3.00 | 2.97 | 82 | 1012.4 | |
| 20260508003717 | 13 | 0.0 | 0.0 | 0.33 | 3.00 | 2.97 | 82 | 1012.1 | |
| 20260508002717 | 13 | 0.0 | 0.0 | 0.30 | 2.97 | 2.95 | 82 | 1012.4 | |
| 20260508001717 | 13 | 0.0 | 0.0 | 0.25 | 2.92 | 2.90 | 82 | 1012.1 | |
| 20260508000717 | 13 | 0.0 | 0.0 | 0.10 | 2.77 | 2.74 | 81 | 1012.1 | |
| 20260507235737 | 13 | 0.0 | 0.0 | 0.05 | 2.72 | 2.69 | 81 | 1011.7 | |
| 20260507234717 | 13 | 0.0 | 3.2 | 0.00 | 2.67 | 2.64 | 80 | 1010.8 | |
| 20260507233717 | 13 | 0.0 | 0.0 | 0.00 | 2.67 | 2.64 | 80 | 1010.8 | |
| 20260507232737 | 13 | 0.0 | 1.6 | 0.00 | 2.67 | 2.64 | 80 | 1011.1 | |
| 20260507231717 | 13 | 0.0 | 3.2 | 0.00 | 2.67 | 2.64 | 80 | 1011.0 | |
| 20260507230717 | 13 | 0.0 | 3.2 | 0.00 | 2.67 | 2.64 | 80 | 1011.1 | |
| 20260507225737 | 13 | 0.0 | 1.6 | 0.00 | 2.67 | 2.64 | 81 | 1010.8 | |
| 20260507224716 | 13 | 0.0 | 0.0 | 0.00 | 2.67 | 2.64 | 80 | 1011.0 | |
| 20260507223717 | 13 | 0.0 | 0.0 | 0.00 | 2.67 | 2.64 | 80 | 1010.6 | |
| 20260507222717 | 13 | 0.0 | 3.2 | 0.00 | 2.67 | 2.64 | 79 | 1010.6 | |
| 20260507221717 | 13 | 0.0 | 0.0 | 0.00 | 2.67 | 2.64 | 79 | 1010.6 | |
| 20260507220716 | 13 | 203 | 1.6 | 8.0 | 0.00 | 2.67 | 2.64 | 79 | 1010.5 |
| 20260507215737 | 13 | 0.0 | 0.0 | 0.00 | 2.67 | 2.64 | 79 | 1010.7 | |
| 20260507214716 | 13 | 158 | 1.6 | 8.0 | 0.00 | 2.67 | 2.64 | 79 | 1010.9 |
| 20260507213716 | 13 | 0.0 | 3.2 | 0.00 | 2.67 | 2.64 | 80 | 1010.7 | |
| 20260507212717 | 13 | 0.0 | 3.2 | 0.00 | 2.67 | 2.64 | 80 | 1010.5 | |
| 20260507211716 | 13 | 90 | 1.6 | 9.7 | 0.00 | 2.67 | 2.64 | 80 | 1010.5 |
| 20260507210717 | 14 | 0.0 | 1.6 | 0.00 | 2.67 | 2.64 | 80 | 1010.3 | |
| 20260507205716 | 14 | 0.0 | 1.6 | 0.00 | 2.67 | 2.64 | 80 | 1010.0 | |
| 20260507204716 | 15 | 0.0 | 0.0 | 0.00 | 2.67 | 2.64 | 81 | 1009.8 | |
| 20260507203716 | 15 | 23 | 1.6 | 4.8 | 0.00 | 2.67 | 2.64 | 81 | 1009.7 |
| 20260507202716 | 15 | 0.0 | 3.2 | 0.00 | 2.67 | 2.64 | 81 | 1009.6 | |
| 20260507201716 | 15 | 0.0 | 0.0 | 0.00 | 2.67 | 2.64 | 81 | 1009.7 | |
| 20260507200716 | 15 | 0.0 | 3.2 | 0.00 | 2.67 | 2.64 | 81 | 1009.6 | |
| 20260507195716 | 15 | 0.0 | 4.8 | 0.00 | 2.67 | 2.64 | 81 | 1009.9 | |
| 20260507194716 | 15 | 45 | 1.6 | 6.4 | 0.00 | 2.67 | 2.64 | 82 | 1009.8 |
| 20260507193716 | 15 | 23 | 3.2 | 9.7 | 0.00 | 2.67 | 2.64 | 81 | 1009.7 |
| 20260507192716 | 15 | 270 | 1.6 | 4.8 | 0.00 | 2.67 | 2.64 | 82 | 1009.6 |
| 20260507191716 | 15 | 0.0 | 1.6 | 0.00 | 2.72 | 2.64 | 82 | 1009.6 | |
| 20260507190716 | 15 | 0.0 | 1.6 | 0.00 | 2.79 | 2.64 | 81 | 1010.0 | |
| 20260507185716 | 16 | 90 | 1.6 | 8.0 | 0.03 | 2.84 | 2.64 | 81 | 1009.7 |
| 20260507184716 | 16 | 0.0 | 1.6 | 0.03 | 2.84 | 2.64 | 81 | 1009.0 | |
| 20260507183736 | 16 | 315 | 3.2 | 6.4 | 0.03 | 2.84 | 2.64 | 81 | 1009.3 |
| 20260507182716 | 17 | 315 | 1.6 | 8.0 | 0.03 | 2.84 | 2.64 | 80 | 1009.4 |
| 20260507181716 | 17 | 0.0 | 1.6 | 0.03 | 2.84 | 2.64 | 80 | 1009.1 | |
| 20260507180716 | 20 | 158 | 3.2 | 6.4 | 0.03 | 2.84 | 2.64 | 76 | 1008.7 |
| 20260507175716 | 21 | 315 | 1.6 | 6.4 | 0.00 | 2.82 | 2.62 | 80 | 1008.8 |
| 20260507174716 | 21 | 0.0 | 0.0 | 0.00 | 2.82 | 2.62 | 83 | 1008.9 | |
| 20260507173716 | 21 | 293 | 4.8 | 8.0 | 0.00 | 2.82 | 2.62 | 81 | 1009.3 |
| 20260507172716 | 21 | 0.0 | 0.0 | 0.00 | 2.82 | 2.62 | 83 | 1009.1 | |
| 20260507171716 | 21 | 0.0 | 0.0 | 0.00 | 2.82 | 2.62 | 82 | 1008.9 | |
| 20260507170716 | 21 | 0.0 | 0.0 | 0.00 | 2.82 | 2.62 | 84 | 1008.5 | |
| 20260507165716 | 21 | 0.0 | 1.6 | 0.03 | 2.82 | 2.62 | 82 | 1008.7 | |
| 20260507164716 | 21 | 0.0 | 0.0 | 0.03 | 2.82 | 2.62 | 86 | 1008.7 | |
| 20260507163736 | 21 | 0.0 | 0.0 | 0.03 | 2.82 | 2.62 | 84 | 1009.2 | |
| 20260507162756 | 21 | 0.0 | 0.0 | 0.03 | 2.82 | 2.62 | 86 | 1009.7 | |
| 20260507161716 | 20 | 0.0 | 0.0 | 0.03 | 2.82 | 2.62 | 85 | 1010.0 | |
| 20260507160715 | 20 | 0.0 | 0.0 | 0.03 | 2.82 | 2.62 | 85 | 1010.4 | |
| 20260507155716 | 20 | 0.0 | 0.0 | 0.00 | 2.79 | 2.59 | 84 | 1010.6 | |
| 20260507154736 | 20 | 0.0 | 1.6 | 0.03 | 2.79 | 2.59 | 84 | 1010.3 | |
| 20260507153716 | 20 | 0.0 | 0.0 | 0.05 | 2.79 | 2.59 | 84 | 1010.2 | |
| 20260507152715 | 20 | 0.0 | 0.0 | 0.15 | 2.79 | 2.59 | 85 | 1009.5 | |
| 20260507151715 | 20 | 0.0 | 0.0 | 0.41 | 2.79 | 2.59 | 86 | 1010.0 | |
| 20260507150735 | 20 | 338 | 1.6 | 3.2 | 0.66 | 2.79 | 2.59 | 85 | 1009.8 |
| 20260507145715 | 20 | 0.0 | 3.2 | 1.12 | 2.79 | 2.59 | 85 | 1010.1 | |
| 20260507144756 | 20 | 0.0 | 1.6 | 1.24 | 2.77 | 2.57 | 85 | 1010.4 | |
| 20260507143716 | 20 | 0.0 | 1.6 | 1.27 | 2.74 | 2.54 | 85 | 1010.5 | |
| 20260507142756 | 20 | 0.0 | 1.6 | 1.17 | 2.64 | 2.44 | 85 | 1010.5 | |
| 20260507141716 | 20 | 0.0 | 0.0 | 0.91 | 2.39 | 2.18 | 85 | 1010.5 | |
| 20260507140715 | 20 | 0.0 | 1.6 | 0.66 | 2.13 | 1.93 | 85 | 1010.8 | |
| 20260507135717 | 20 | 0 | 1.6 | 3.2 | 0.20 | 1.68 | 1.47 | 85 | 1010.9 |
| 20260507134717 | 20 | 0.0 | 0.0 | 0.08 | 1.52 | 1.32 | 85 | 1010.7 | |
| 20260507133717 | 20 | 0.0 | 0.0 | 0.03 | 1.47 | 1.27 | 85 | 1010.8 | |
| 20260507132717 | 20 | 0.0 | 0.0 | 0.03 | 1.47 | 1.27 | 85 | 1010.8 | |
| 20260507131718 | 20 | 0.0 | 0.0 | 0.03 | 1.47 | 1.27 | 85 | 1010.8 | |
| 20260507130717 | 20 | 0.0 | 1.6 | 0.03 | 1.47 | 1.27 | 85 | 1010.8 | |
| 20260507125717 | 20 | 315 | 1.6 | 3.2 | 0.03 | 1.47 | 1.27 | 85 | 1010.6 |
| 20260507124717 | 19 | 0.0 | 3.2 | 0.00 | 1.45 | 1.24 | 85 | 1010.7 | |
| 20260507123737 | 19 | 45 | 1.6 | 3.2 | 0.00 | 1.45 | 1.24 | 85 | 1010.6 |
| 20260507122717 | 19 | 0.0 | 3.2 | 0.00 | 1.45 | 1.24 | 85 | 1010.7 | |
| 20260507121717 | 19 | 0.0 | 0.0 | 0.00 | 1.45 | 1.24 | 85 | 1010.7 | |
| 20260507120737 | 19 | 0.0 | 0.0 | 0.00 | 1.45 | 1.24 | 85 | 1010.9 | |
| 20260507115717 | 19 | 0.0 | 0.0 | 0.00 | 1.45 | 1.24 | 85 | 1011.0 | |
| 20260507114717 | 19 | 0.0 | 1.6 | 0.00 | 1.45 | 1.24 | 85 | 1011.0 | |
| 20260507113737 | 18 | 0.0 | 0.0 | 0.03 | 1.45 | 1.24 | 85 | 1011.3 | |
| 20260507112717 | 18 | 0.0 | 0.0 | 0.03 | 1.45 | 1.24 | 85 | 1011.4 | |
| 20260507111717 | 18 | 0.0 | 0.0 | 0.03 | 1.45 | 1.24 | 85 | 1011.3 | |
| 20260507110717 | 18 | 0.0 | 3.2 | 0.03 | 1.45 | 1.24 | 85 | 1011.5 | |
| 20260507105717 | 18 | 0.0 | 0.0 | 0.05 | 1.45 | 1.24 | 85 | 1011.3 | |
| 20260507104717 | 18 | 0.0 | 0.0 | 0.08 | 1.45 | 1.24 | 85 | 1011.1 | |
| 20260507103737 | 18 | 0.0 | 0.0 | 0.05 | 1.42 | 1.22 | 85 | 1010.9 | |
| 20260507102717 | 18 | 0.0 | 0.0 | 0.05 | 1.42 | 1.22 | 84 | 1011.1 | |
| 20260507101717 | 18 | 0.0 | 0.0 | 0.05 | 1.42 | 1.22 | 84 | 1011.0 | |
| 20260507100717 | 18 | 0.0 | 0.0 | 0.08 | 1.42 | 1.22 | 84 | 1011.0 | |
| 20260507095737 | 18 | 0.0 | 0.0 | 0.05 | 1.40 | 1.19 | 84 | 1011.0 | |
| 20260507094717 | 18 | 0.0 | 0.0 | 0.03 | 1.37 | 1.17 | 85 | 1010.9 | |
| 20260507093716 | 18 | 0.0 | 0.0 | 0.03 | 1.37 | 1.17 | 85 | 1011.0 | |
| 20260507092717 | 18 | 0.0 | 0.0 | 0.08 | 1.37 | 1.17 | 85 | 1010.9 | |
| 20260507091718 | 18 | 0.0 | 0.0 | 0.18 | 1.37 | 1.17 | 84 | 1010.7 | |
| 20260507090716 | 18 | 0.0 | 0.0 | 0.23 | 1.35 | 1.14 | 84 | 1011.0 | |
| 20260507085717 | 18 | 0.0 | 0.0 | 0.23 | 1.35 | 1.14 | 84 | 1010.9 | |
| 20260507084737 | 18 | 135 | 1.6 | 4.8 | 0.28 | 1.35 | 1.14 | 84 | 1011.0 |
| 20260507083717 | 18 | 0.0 | 0.0 | 0.33 | 1.35 | 1.14 | 84 | 1011.4 | |
| 20260507082716 | 18 | 0.0 | 0.0 | 0.33 | 1.30 | 1.09 | 84 | 1011.6 | |
| 20260507081716 | 18 | 0.0 | 0.0 | 0.23 | 1.19 | 0.99 | 83 | 1011.8 | |
| 20260507080716 | 18 | 0.0 | 0.0 | 0.18 | 1.12 | 0.91 | 83 | 1011.8 | |
| 20260507075716 | 18 | 0.0 | 0.0 | 0.23 | 1.12 | 0.91 | 83 | 1011.6 | |
| 20260507074716 | 18 | 0.0 | 0.0 | 0.18 | 1.07 | 0.86 | 83 | 1010.6 | |
| 20260507073716 | 18 | 0.0 | 3.2 | 0.13 | 1.02 | 0.81 | 83 | 1011.7 | |
| 20260507072836 | 18 | 0.0 | 0.0 | 0.08 | 0.97 | 0.76 | 83 | 1012.0 | |
| 20260507071716 | 18 | 0.0 | 0.0 | 0.08 | 0.97 | 0.76 | 83 | 1011.9 | |
| 20260507070716 | 18 | 0.0 | 0.0 | 0.05 | 0.94 | 0.74 | 82 | 1011.9 | |
| 20260507065716 | 18 | 0.0 | 0.0 | 0.00 | 0.89 | 0.69 | 82 | 1012.3 |